Location: Unspecified
(0.0000°N, 0.0000°E)
Time: 11:37:46
(UTC+00:00)

N. Korean satellite - Pass Details

Date: 17 August 2017
Orbit: 462 x 515 km, 97.2° (Epoch: 22 August)

Event Time Altitude Azimuth Distance (km) Brightness Sun altitude
Rises 19:04:05 0° 190° (S) 2,490 10.1 -14.6°
Reaches altitude 10° 19:06:25 10° 205° (SSW) 1,617 9.4 -15.2°
Maximum altitude 19:09:12 23° 259° (W) 1,043 9.0 -15.9°
Drops below altitude 10° 19:12:00 10° 313° (NW) 1,625 10.2 -16.5°
Sets 19:14:21 0° 328° (NNW) 2,507 10.9 -17.1°
